Flag for Switzerland Weather past 2 weeks in Regensdorf, Zurich, Switzerland

Now
54 °F

Cool.


Feels Like: 54 °F
Forecast: 49 / 58 °F
Wind: 3 mph from Northwest

Location: Zurich-Kloten

Current Time: May 25, 2015 at 5:41:43 AM

Latest Report: May 25, 2015 at 4:00 AM


Visibility: N/A

Pressure: 30.03 "Hg

Humidity: 82%

Dew point: 49 °F

Location of RegensdorfLocation

Historic Weather in Regensdorf — Graph

°F

Regensdorf temperature yesterday

Maximum temperature yesterday: 66 °F (at 1:00 PM)
Minimum temperature yesterday: 51 °F (at 6:00 AM)
Average temperature yesterday: 59 °F

Past Weeks' High & Low Weather Summary

 TemperatureHumidityPressure
High81 °F (May 12, 3:00 PM)98% (May 18, 6:00 AM)30.39 "Hg (May 18, 6:00 AM)
Low43 °F (May 22, 6:00 AM)33% (May 10, 4:00 PM)29.72 "Hg (May 18, 6:00 PM)
Average57 °F71%30.09 "Hg
* Reported May 10 4:00 AM — May 25 4:00 AM, Regensdorf, Weather by CustomWeather, © 2015

Note: Actual official high and low records may vary slightly from our data, if they occured in-between our weather recording intervals... More about our weather records

Advertising

Regensdorf weather history for previous 24 hours

 ConditionsComfort  
Time TempWeatherWind HumidityBarometerVisibility
4:00 AM
Mon, May 25
54 °FCool.3 mph82%30.03 "HgN/A
3:00 AM55 °FCool.5 mph79%30.03 "HgN/A
2:00 AM55 °FOvercast.3 mph82%30.03 "Hg12 mi
1:00 AM57 °FCool.2 mph74%30.04 "HgN/A
12:00 AM57 °FCool.5 mph73%30.04 "HgN/A
10:00 PM
Sun, May 24
58 °FCool.6 mph74%30.03 "HgN/A
9:00 PM61 °FRefreshingly cool.6 mph58%30.02 "HgN/A
8:00 PM62 °FRefreshingly cool.5 mph57%30.01 "HgN/A
7:00 PM63 °FMild.10 mph52%30.00 "HgN/A
6:00 PM64 °FMild.12 mph49%30.00 "HgN/A
5:00 PM66 °FPartly sunny.10 mph48%30.00 "Hg16 mi
4:00 PM66 °FMild.10 mph49%30.01 "HgN/A
3:00 PM64 °FMild.14 mph49%30.02 "HgN/A
2:00 PM65 °FPartly sunny.17 mph45%30.02 "Hg16 mi
1:00 PM66 °FMild.15 mph49%30.02 "HgN/A
12:00 PM62 °FRefreshingly cool.15 mph58%30.05 "HgN/A
11:00 AM59 °FOvercast.13 mph61%30.06 "Hg12 mi
10:00 AM57 °FCool.5 mph71%30.07 "HgN/A
9:00 AM55 °FCool.6 mph73%30.07 "HgN/A
8:00 AM54 °FOvercast.5 mph78%30.07 "Hg9 mi
7:00 AM53 °FCool.2 mph83%30.06 "HgN/A
6:00 AM51 °FCool.3 mph88%30.06 "HgN/A
Weather by CustomWeather, © 2015

See weather overviewHow to use our weather pages